Watertown, NY

8:55 AM EDT on September 24, 2017 (GMT -0400)
Watertown International

Weather History for KART - December, 2012

Change the Weather History Date:

Wednesday, December 26, 2012

  Actual Average Record
Temperature  
Mean Temperature 9 °F 23 °F  
Max Temperature 18 °F 32 °F 60 °F (1982)
Min Temperature 0 °F 14 °F -21 °F (1989)
Degree Days  
Heating Degree Days 56 42  
Month to date heating degree days 812 982  
Since 1 July heating degree days 2221 2581  
Cooling Degree Days 0 0  
Month to date cooling degree days 0 0  
Year to date cooling degree days 607 362  
Moisture  
Dew Point 9 °F    
Average Humidity 81    
Maximum Humidity 88    
Minimum Humidity 74    
Precipitation  
Precipitation 0.01 in 0.10 in 0.82 in (1975)
Month to date precipitation 4.08 2.67  
Year to date precipitation 34.45 35.60  
Sea Level Pressure  
Sea Level Pressure 30.18 in    
Wind  
Wind Speed 11 mph (NE)    
Max Wind Speed 22 mph    
Max Gust Speed 26 mph    
Visibility 6 miles    
Events Fog , Snow    
T = Trace of Precipitation, MM = Missing Value Source: NWS Daily Summary

Daily Weather History Graph

Daily Weather History Graph

Search for Another Location

Airport or City:

Trip Planner

Search our weather history database for the weather conditions in past years. The results will help you decide how hot, cold, wet, or windy it might be!

Date:

Astronomy

Dec. 26, 2012 Rise Set
Actual Time 7:37 AM EST 4:32 PM EST
Civil Twilight 7:04 AM EST 5:05 PM EST
Nautical Twilight 6:28 AM EST 5:41 PM EST
Astronomical Twilight 5:53 AM EST 6:16 PM EST
Moon 3:24 PM EST (12/26) 5:58 AM EST (12/26)
Length of Visible Light 10h 00m
Length of Day
8h 54m
Waxing Gibbous, 97% of the Moon is Illuminated
Dec 26
Waxing Gibbous
Dec 28
Full
Jan 4
Last Quarter
Jan 11
New
Jan 18
First Quarter

Hourly Weather History & Observations

Time (EST) Temp. Windchill Dew Point Humidity Pressure Visibility Wind Dir Wind Speed Gust Speed Precip Events Conditions
12:56 AM 7.0 °F -4.5 °F 3.9 °F 87% 30.38 in 10.0 mi NE 6.9 mph - N/A   Clear
1:56 AM 6.1 °F - 3.9 °F 91% 30.43 in 10.0 mi Calm Calm - N/A   Clear
2:12 AM 3.2 °F - -0.4 °F 85% 30.40 in 1.8 mi Calm Calm - N/A   Clear
2:23 AM 5.0 °F - 1.4 °F 85% 30.40 in 0.8 mi Calm Calm - N/A   Clear
2:32 AM 3.2 °F - 1.4 °F 92% 30.40 in 1.2 mi Calm Calm - N/A   Clear
2:39 AM 3.2 °F - -0.4 °F 85% 30.40 in 3.0 mi Calm Calm - N/A   Clear
2:56 AM 1.0 °F -6.7 °F -2.9 °F 83% 30.43 in 10.0 mi ENE 3.5 mph - N/A   Clear
3:56 AM 3.2 °F -6.2 °F -0.4 °F 85% 30.37 in 10.0 mi ENE 4.6 mph - N/A   Clear
4:56 AM 5.0 °F -4.1 °F 1.0 °F 84% 30.37 in 10.0 mi ENE 4.6 mph - N/A   Clear
5:56 AM 7.0 °F - 3.9 °F 87% 30.38 in 10.0 mi Calm Calm - N/A   Clear
6:56 AM 5.0 °F -2.1 °F 1.4 °F 85% 30.34 in 10.0 mi NE 3.5 mph - N/A   Clear
7:56 AM 5.0 °F -5.6 °F 1.0 °F 84% 30.36 in 10.0 mi NE 5.8 mph - N/A   Clear
8:56 AM 10.0 °F -0.9 °F 7.0 °F 87% 30.38 in 10.0 mi NE 6.9 mph - N/A   Clear
9:56 AM 12.9 °F -0.2 °F 9.0 °F 84% 30.35 in 10.0 mi ENE 10.4 mph - N/A   Clear
10:56 AM 14.0 °F -0.2 °F 10.0 °F 84% 30.32 in 10.0 mi NE 12.7 mph - N/A   Clear
11:56 AM 16.0 °F 2.3 °F 10.9 °F 81% 30.27 in 10.0 mi NE 12.7 mph - N/A   Clear
12:56 PM 17.1 °F 2.5 °F 10.9 °F 77% 30.25 in 10.0 mi NE 15.0 mph - N/A   Clear
1:56 PM 18.0 °F 1.7 °F 10.9 °F 74% 30.20 in 10.0 mi NE 19.6 mph - N/A   Clear
2:56 PM 18.0 °F 2.6 °F 12.0 °F 78% 30.18 in 10.0 mi NE 17.3 mph - N/A   Clear
3:56 PM 17.1 °F 2.5 °F 12.0 °F 81% 30.15 in 10.0 mi NE 15.0 mph - N/A   Clear
4:56 PM 18.0 °F 3.6 °F 12.0 °F 78% 30.14 in 10.0 mi NE 15.0 mph - N/A   Partly Cloudy
5:56 PM 17.1 °F 2.5 °F 12.0 °F 81% 30.11 in 10.0 mi NE 15.0 mph - N/A   Partly Cloudy
6:42 PM 17.6 °F 2.2 °F 12.2 °F 79% 30.03 in 10.0 mi NE 17.3 mph - N/A   Overcast
6:56 PM 18.0 °F 3.1 °F 14.0 °F 84% 30.06 in 10.0 mi NE 16.1 mph - N/A   Overcast
7:13 PM 17.6 °F 2.2 °F 14.0 °F 86% 30.02 in 10.0 mi NE 17.3 mph 26.5 mph N/A   Overcast
7:56 PM 18.0 °F 2.6 °F 14.0 °F 84% 30.04 in 10.0 mi NE 17.3 mph - N/A   Overcast
8:56 PM 18.0 °F 4.8 °F 12.9 °F 81% 30.04 in 10.0 mi NE 12.7 mph - N/A   Overcast
9:14 PM 17.6 °F 2.7 °F 12.2 °F 79% 30.00 in 2.5 mi NE 16.1 mph - 0.00 in Snow Light Snow
9:22 PM 17.6 °F 4.3 °F 12.2 °F 79% 30.01 in 1.0 mi ENE 12.7 mph - 0.00 in Snow Light Snow
9:32 PM 17.6 °F 5.0 °F 14.0 °F 86% 30.01 in 0.8 mi ENE 11.5 mph - 0.00 in Snow Light Snow
9:43 PM 17.6 °F 3.2 °F 12.2 °F 79% 30.00 in 1.0 mi NE 15.0 mph - 0.00 in Snow Light Snow
9:56 PM 17.1 °F 2.5 °F 14.0 °F 88% 30.01 in 1.0 mi NE 15.0 mph - 0.00 in Snow Light Snow
10:05 PM 17.6 °F 2.2 °F 14.0 °F 86% 29.96 in 0.8 mi NNE 17.3 mph - 0.00 in Snow Light Snow
10:21 PM 17.6 °F 2.7 °F 14.0 °F 86% 29.95 in 0.5 mi NE 16.1 mph - 0.00 in Fog , Snow Snow
10:45 PM 17.6 °F 2.2 °F 12.2 °F 79% 29.93 in 1.0 mi NE 17.3 mph - 0.01 in Snow Light Snow
10:56 PM 17.1 °F 0.6 °F 12.9 °F 84% 29.95 in 0.8 mi NE 19.6 mph - 0.01 in Snow Light Snow
11:21 PM 17.6 °F 2.2 °F 12.2 °F 79% 29.89 in 0.8 mi NE 17.3 mph - 0.00 in Snow Light Snow
11:56 PM 17.1 °F 2.5 °F 12.9 °F 84% 29.91 in 0.8 mi NE 15.0 mph - 0.00 in Snow Light Snow